Location: Cucq
(50.4773°N, 1.6202°E)
Time: 17:48:19
(UTC+00:00)

SL-4 R/B - Pass Details

Date: 07 August 2020
Orbit: 428 x 665 km, 51.6° (Epoch: 24 September)

Event Time Altitude Azimuth Distance (km) Brightness Sun altitude
Exits shadow 03:33:20 - 280° (W) 2,193 4.7 -8.4°
Reaches altitude 10° 03:35:17 10° 264° (W) 1,532 3.8 -8.2°
Maximum altitude 03:37:42 18° 219° (SW) 1,117 3.0 -7.9°
Drops below altitude 10° 03:40:07 10° 174° (S) 1,521 4.0 -7.6°
Sets 03:42:39 0° 155° (SSE) 2,394 5.2 -7.3°
